TimeCST,TemperatureF,Dew PointF,Humidity,Sea Level PressureIn,VisibilityMPH,Wind Direction,Wind SpeedMPH,Gust SpeedMPH,PrecipitationIn,Events,Conditions,WindDirDegrees,DateUTC
12:15 AM,53.6,48.2,82,29.92,4.0,East,5.8,-,N/A,,Overcast,80,2012-12-09 06:15:00
12:35 AM,53.6,48.2,82,29.92,4.0,East,4.6,-,N/A,,Overcast,80,2012-12-09 06:35:00
12:55 AM,53.6,48.2,82,29.92,4.0,East,5.8,-,N/A,,Haze,80,2012-12-09 06:55:00
1:15 AM,53.6,48.2,82,29.91,4.0,ENE,4.6,-,N/A,,Haze,70,2012-12-09 07:15:00
1:35 AM,53.6,48.2,82,29.90,4.0,East,6.9,-,N/A,,Haze,80,2012-12-09 07:35:00
1:55 AM,53.6,50.0,88,29.89,3.0,East,8.1,-,N/A,Rain-Thunderstorm,Light Thunderstorms and Rain,90,2012-12-09 07:55:00
2:15 AM,53.6,50.0,88,29.88,2.0,East,6.9,-,0.02,Rain-Thunderstorm,Thunderstorms and Rain,90,2012-12-09 08:15:00
2:35 AM,53.6,50.0,88,29.87,2.0,ENE,4.6,-,0.02,Thunderstorm,Unknown,60,2012-12-09 08:35:00
2:55 AM,53.6,50.0,88,29.85,2.0,East,8.1,-,0.02,Rain-Thunderstorm,Rain,80,2012-12-09 08:55:00
3:15 AM,53.6,50.0,88,29.85,1.8,NE,5.8,-,N/A,Thunderstorm,Overcast,50,2012-12-09 09:15:00
3:35 AM,53.6,50.0,88,29.85,1.8,NNE,6.9,-,N/A,,Overcast,30,2012-12-09 09:35:00
3:55 AM,53.6,50.0,88,29.85,1.8,NNE,5.8,-,N/A,,Overcast,30,2012-12-09 09:55:00
4:15 AM,53.6,50.0,88,29.85,1.5,NE,3.5,-,N/A,,Overcast,40,2012-12-09 10:15:00
4:55 AM,53.6,50.0,88,29.85,1.2,Calm,Calm,-,0.02,Rain-Thunderstorm,Light Thunderstorms and Rain,0,2012-12-09 10:55:00
5:15 AM,53.6,50.0,88,29.86,1.2,ESE,4.6,-,0.02,Rain-Thunderstorm,Rain,110,2012-12-09 11:15:00
5:35 AM,53.6,51.8,94,29.87,1.0,Calm,Calm,-,0.06,Rain-Thunderstorm,Rain,0,2012-12-09 11:35:00
5:55 AM,53.6,51.8,94,29.85,1.2,ESE,5.8,-,0.09,Rain,Light Rain,110,2012-12-09 11:55:00
6:15 AM,53.6,51.8,94,29.84,1.0,ESE,3.5,-,0.03,,Overcast,120,2012-12-09 12:15:00
6:35 AM,53.6,51.8,94,29.85,1.0,Calm,Calm,-,0.03,,Overcast,0,2012-12-09 12:35:00
6:55 AM,55.4,51.8,88,29.85,1.5,SSE,5.8,-,0.03,,Overcast,160,2012-12-09 12:55:00
7:15 AM,55.4,53.6,94,29.85,4.0,SE,4.6,-,N/A,,Overcast,140,2012-12-09 13:15:00
7:35 AM,57.2,55.4,94,29.85,7.0,SE,4.6,-,N/A,,Overcast,140,2012-12-09 13:35:00
7:55 AM,57.2,55.4,94,29.84,10.0,SE,6.9,-,N/A,,Mostly Cloudy,140,2012-12-09 13:55:00
8:15 AM,57.2,55.4,94,29.85,10.0,SE,4.6,-,N/A,,Overcast,140,2012-12-09 14:15:00
8:35 AM,59.0,55.4,88,29.85,10.0,SSE,3.5,-,N/A,,Mostly Cloudy,160,2012-12-09 14:35:00
8:55 AM,59.0,57.2,94,29.84,10.0,SE,4.6,-,N/A,,Mostly Cloudy,140,2012-12-09 14:55:00
9:15 AM,60.8,59.0,94,29.85,10.0,SSE,6.9,-,N/A,,Scattered Clouds,150,2012-12-09 15:15:00
9:35 AM,62.6,59.0,88,29.85,10.0,SSE,8.1,-,N/A,,Mostly Cloudy,160,2012-12-09 15:35:00
9:55 AM,64.4,60.8,88,29.85,10.0,South,9.2,-,N/A,,Scattered Clouds,170,2012-12-09 15:55:00
10:15 AM,64.4,60.8,88,29.86,10.0,South,11.5,16.1,N/A,,Scattered Clouds,180,2012-12-09 16:15:00
10:35 AM,64.4,59.0,83,29.86,10.0,South,9.2,-,N/A,,Overcast,190,2012-12-09 16:35:00
10:55 AM,62.6,59.0,88,29.85,10.0,South,8.1,-,N/A,Rain,Light Rain,180,2012-12-09 16:55:00
11:15 AM,62.6,59.0,88,29.83,7.0,SSE,8.1,-,0.01,Rain,Rain,150,2012-12-09 17:15:00
11:35 AM,62.6,59.0,88,29.84,7.0,South,10.4,-,0.03,Rain,Rain,170,2012-12-09 17:35:00
11:55 AM,62.6,59.0,88,29.81,7.0,SSE,10.4,-,0.05,Rain,Light Rain,160,2012-12-09 17:55:00
12:15 PM,64.4,60.8,88,29.80,10.0,South,11.5,17.3,N/A,,Mostly Cloudy,170,2012-12-09 18:15:00
12:35 PM,66.2,62.6,88,29.79,10.0,South,9.2,-,N/A,,Scattered Clouds,170,2012-12-09 18:35:00
12:55 PM,66.2,60.8,83,29.79,10.0,South,6.9,-,N/A,,Mostly Cloudy,180,2012-12-09 18:55:00
1:15 PM,64.4,60.8,88,29.78,10.0,South,9.2,-,N/A,,Overcast,170,2012-12-09 19:15:00
1:35 PM,64.4,60.8,88,29.77,10.0,South,10.4,-,N/A,,Overcast,170,2012-12-09 19:35:00
1:55 PM,66.2,60.8,83,29.76,10.0,South,10.4,-,N/A,,Overcast,180,2012-12-09 19:55:00
2:15 PM,66.2,60.8,83,29.75,10.0,South,9.2,-,N/A,,Overcast,180,2012-12-09 20:15:00
2:35 PM,66.2,60.8,83,29.75,10.0,South,6.9,-,N/A,,Drizzle,170,2012-12-09 20:35:00
2:55 PM,66.2,60.8,83,29.75,10.0,South,10.4,16.1,N/A,,Light Drizzle,170,2012-12-09 20:55:00
3:15 PM,66.2,60.8,83,29.74,10.0,South,10.4,16.1,N/A,Thunderstorm,Overcast,180,2012-12-09 21:15:00
3:35 PM,66.2,60.8,83,29.74,10.0,South,9.2,-,N/A,,Overcast,180,2012-12-09 21:35:00
3:55 PM,66.2,60.8,83,29.74,10.0,South,12.7,18.4,N/A,,Overcast,190,2012-12-09 21:55:00
4:15 PM,66.2,60.8,83,29.74,10.0,South,9.2,-,N/A,,Overcast,180,2012-12-09 22:15:00
4:35 PM,66.2,60.8,83,29.74,10.0,South,11.5,-,N/A,,Overcast,180,2012-12-09 22:35:00
4:55 PM,66.2,60.8,83,29.74,10.0,South,8.1,-,N/A,,Overcast,190,2012-12-09 22:55:00
5:15 PM,66.2,60.8,83,29.73,7.0,South,11.5,16.1,N/A,Rain,Heavy Rain,190,2012-12-09 23:15:00
5:35 PM,66.2,60.8,83,29.75,10.0,West,15.0,21.9,0.02,Rain-Thunderstorm,Light Thunderstorms and Rain,270,2012-12-09 23:35:00
5:55 PM,62.6,57.2,82,29.76,4.0,WSW,10.4,16.1,0.04,Rain-Thunderstorm,Heavy Thunderstorms and Rain,250,2012-12-09 23:55:00
6:15 PM,62.6,57.2,82,29.75,5.0,SW,11.5,-,0.02,Rain-Thunderstorm,Rain,220,2012-12-10 00:15:00
6:35 PM,62.6,57.2,82,29.75,10.0,WNW,8.1,-,0.03,,Mostly Cloudy,290,2012-12-10 00:35:00
6:55 PM,60.8,57.2,88,29.76,10.0,West,6.9,-,0.04,,Mostly Cloudy,270,2012-12-10 00:55:00
7:15 PM,60.8,57.2,88,29.77,10.0,WNW,10.4,-,0.01,Thunderstorm,Overcast,300,2012-12-10 01:15:00
7:55 PM,55.4,51.8,88,29.79,10.0,NNW,12.7,23.0,0.02,,Overcast,330,2012-12-10 01:55:00
8:35 PM,55.4,50.0,82,29.80,10.0,NNW,8.1,-,0.01,,Overcast,340,2012-12-10 02:35:00
8:55 PM,55.4,50.0,82,29.80,10.0,NNW,11.5,16.1,0.01,,Overcast,340,2012-12-10 02:55:00
9:15 PM,55.4,50.0,82,29.81,10.0,NNW,8.1,-,N/A,,Overcast,330,2012-12-10 03:15:00
9:35 PM,53.6,50.0,88,29.81,10.0,NNW,11.5,-,0.01,,Overcast,330,2012-12-10 03:35:00
9:55 PM,53.6,50.0,88,29.82,10.0,NNW,10.4,-,0.01,,Overcast,330,2012-12-10 03:55:00
10:15 PM,53.6,48.2,82,29.82,7.0,NNW,11.5,-,N/A,,Overcast,330,2012-12-10 04:15:00
10:35 PM,53.6,48.2,82,29.83,5.0,NNW,17.3,21.9,0.01,,Haze,330,2012-12-10 04:35:00
10:55 PM,51.8,46.4,82,29.84,5.0,NNW,19.6,24.2,0.01,,Haze,330,2012-12-10 04:55:00
11:15 PM,50.0,46.4,87,29.83,4.0,NNW,15.0,18.4,N/A,,Haze,330,2012-12-10 05:15:00
11:35 PM,50.0,44.6,82,29.84,5.0,North,12.7,19.6,N/A,,Overcast,350,2012-12-10 05:35:00
11:55 PM,50.0,44.6,82,29.85,7.0,NNW,16.1,20.7,N/A,,Overcast,340,2012-12-10 05:55:00